Welcome to the New NWS' Forecast!
Most changes are behind the scenes, but click here for differences you might notice.
Latest weather observations around

Cloquet Carlton County Airport (KCOQ)

Using English Units (Switch to International System of Units)
Date/ Time (CST) Wind (mph) Vis. (mi) Weather Sky Cond. Temp (°F) Rel. Humidity Wind Chill (°F) Heat Index (°F) Pressure Precip. (in)
Air Dwpt 6 hour Altimeter (inHg) Sea level (inHg) 1 hr 3 hr 6 hr
Max Min
Jan 23 07:15 NNW 14 10 Clear CLR 5 0     78% -12   29.96        
Jan 23 06:55 NNW 15 10 Mostly Cloudy BKN024 7 0     72% -11   29.96        
Jan 23 06:35 NNW 18 10 Cloudy OVC024 7 1     78% -12            
Jan 23 06:15   10 Cloudy OVC024 7 1     78%     29.95        
Jan 23 05:55 NNW 20 10 Cloudy and Windy OVC024 9 1     72% -11   29.94        
Jan 23 05:35 NNW 17 10 Cloudy OVC024 9 1     72% -9            
Jan 23 05:15 NNW 15 10 Cloudy SCT012 OVC024 9 3     78% -8            
Jan 23 04:55 NNW 15 10 Cloudy OVC024 9 3     78% -8            
Jan 23 04:35 NNW 14 10 Cloudy OVC026 10 3     72% -5            
Jan 23 04:15 NNW 16 10 Cloudy OVC026 10 5     78% -7            
Jan 23 03:55 NNW 11 10 Cloudy SCT015 OVC026 10 5     78% -4            
Jan 23 03:35 NNW 14 10 Cloudy OVC015 12 7     79% -3            
Jan 23 03:15 NNW 13 10 Cloudy BKN015 OVC025 12 7     79% -3            
Jan 23 02:55 NNW 13 10 Cloudy SCT015 OVC027 12 9     85% -3            
Jan 23 02:35 NNW 13 10 Partly Cloudy SCT027 12 9     85% -3            
Jan 23 02:15 NNW 13 10 Clear CLR 12 9     85% -3            
Jan 23 01:55 NNW 13 10 Clear CLR 14 9     79% 0            
Jan 23 01:35 NNW 14 10 Clear CLR 14 9     79% -1            
Jan 23 01:15 NNW 14 10 Clear CLR 16 9     73% 1            
Jan 23 00:55 NNW 13 10 Clear CLR 16 9     73% 2            
Jan 23 00:35 NNW 11 10 Clear CLR 16 9     73% 3            
Jan 23 00:15 NNW 14 10 Clear CLR 16 10     79% 1            
Jan 22 23:55 NNW 15 10 Clear CLR 16 10     79% 1            
Jan 22 23:35 NNW 14 10 Clear CLR 16 10     79% 1            
Jan 22 23:15 NNW 13 10 Clear CLR 18 10     73% 4            
Jan 22 22:55 N 10 10 Partly Cloudy SCT031 18 10     73% 6            
Jan 22 22:35 N 10 10 Cloudy OVC031 18 12     79% 6            
Jan 22 22:15 N 10 10 Cloudy OVC031 19 12     73% 8            
Jan 22 21:55 N 10 10 Cloudy OVC031 19 12     73% 8            
Jan 22 21:35 N 11 10 Cloudy OVC031 21 12     68% 10            
Jan 22 21:15 N 10 10 Cloudy OVC031 21 14     73% 10            
Jan 22 20:55 N 13 10 Cloudy OVC031 21 14     73% 9            
Notice The following observation data may not be complete
Jan 22 20:35   10 Cloudy OVC033          %              
Jan 22 20:15 N 11 10 Cloudy OVC033 21 16     79% 10            
Jan 22 19:55 N 13 10 Cloudy OVC033 21 16     79% 9            
Jan 22 19:35 N 11 10 Cloudy OVC033 23 16     74% 12            
Jan 22 19:15 N 10 10 Cloudy OVC033 23 18     79% 12            
Jan 22 18:55 N 13 10 Cloudy SCT026 OVC033 23 18     79% 11            
Jan 22 18:35 N 9 10 Cloudy OVC024 25 18     74% 15   29.86        
Jan 22 18:15 N 11 10 Cloudy OVC022 25 18     74% 14            
Jan 22 17:55 N 8 10 Cloudy OVC020 25 18     74% 16            
Jan 22 17:35 N 8 10 Cloudy OVC020 25 18     74% 16            
Jan 22 17:15 N 8 10 Cloudy OVC018 25 19     80% 16   29.86        
Jan 22 16:55 N 8 10 Cloudy OVC018 27 19     74% 18   29.85        
Jan 22 16:35 NNE 9 10 Cloudy BKN018 OVC030 27 19     74% 18   29.84        
Jan 22 16:15 NE 13 10 Cloudy BKN016 BKN021 OVC031 27 19     74% 16   29.84        
Jan 22 15:55 NE 13 10 Cloudy OVC014 25 19     80% 13   29.83        
Jan 22 15:35 NE 11 10 Cloudy OVC012 25 19     80% 14   29.82        
Jan 22 15:15 NE 14 10 Cloudy OVC012 25 19     80% 13   29.82        
Jan 22 14:55 NE 15 10 Cloudy OVC008 25 19     80% 12   29.83        
Jan 22 14:35 NE 16 10 Cloudy OVC006 25 19     80% 12            
Jan 22 14:15 NE 13 10 Cloudy OVC006 23 19     86% 11            
Jan 22 13:55 NNE 13 10 Cloudy OVC006 23 21     93% 11            
Jan 22 13:35 NE 10 10 Cloudy OVC006 23 21     93% 12            
Jan 22 12:55 ENE 13 10 Cloudy OVC006 23 19     86% 11            
Jan 22 12:35 NE 14 10 Cloudy OVC006 23 19     86% 11            
Jan 22 12:15 NE 13 10 Cloudy OVC006 23 19     86% 11            
Jan 22 11:55 NE 14 10 Cloudy OVC006 23 21     93% 11            
Jan 22 11:35 NE 14 10 Cloudy OVC006 23 21     93% 11            
Jan 22 11:15 NE 11 10 Cloudy OVC006 23 19     86% 12            
Jan 22 10:55 NE 13 10 Cloudy OVC006 23 19     86% 11            
Jan 22 10:35 NE 15 10 Cloudy OVC006 23 21     93% 10            
Jan 22 10:15 ENE 16 10 Cloudy OVC006 23 21     93% 10            
Jan 22 09:55 NE 15 10 Cloudy OVC006 23 21     93% 10            
Jan 22 09:35 NE 16 7 Cloudy OVC006 25 21     86% 12            
Jan 22 09:15 NE 15 7 Cloudy OVC006 25 21     86% 12            
Jan 22 08:55 NE 15 5 Fog/Mist OVC006 25 21     86% 12   29.94        
Jan 22 08:35 NE 14 4 Fog/Mist OVC006 25 21     86% 13   29.95        
Jan 22 08:15 NE 16 3 Light Snow OVC006 25 21     86% 12   29.95        
Jan 22 07:55 NE 16 4 Light Snow OVC006 25 21     86% 12   29.96        
Jan 22 07:35 ENE 15 4 Light Snow OVC006 25 21     86% 12   29.96        
Jan 22 07:15 NE 9 4 Light Snow OVC008 25 21     86% 15   29.96        
Jan 22 06:55 NE 17 5 Light Snow OVC008 25 21     86% 11   29.96        
Jan 22 06:35 ENE 9 7 Light Snow OVC008 27 23     86% 18   29.96        
Jan 22 06:15 ENE 14 5 Light Snow OVC008 27 23     86% 15   29.96        
Jan 22 05:55 ENE 15 3 Light Snow OVC008 27 23     86% 15   29.96        
Jan 22 05:35 ENE 14 4 Light Snow OVC008 27 23     86% 15   29.96        
Jan 22 05:15 ENE 14 5 Light Snow OVC008 27 23     86% 15   29.97        
Jan 22 04:56 ENE 15 5 Light Snow OVC010 27 23     86% 15   29.97        
Jan 22 04:35 ENE 17 4 Light Snow OVC010 27 23     86% 14   29.98        
Jan 22 04:15 ENE 16 5 Light Snow OVC010 27 25     93% 14   29.99        
Jan 22 03:56 ENE 11 3 Light Snow OVC012 27 25     93% 16   29.99        
Jan 22 03:35 ENE 13 4 Light Snow OVC012 27 25     93% 16   30        
Jan 22 03:15 ENE 11 1.75 Light Snow OVC010 27 25     93% 16   30        
Jan 22 02:55 ENE 16 1.75 Light Snow BKN006 OVC012 27 25     93% 14   30.01        
Jan 22 02:35 ENE 11 1.25 Light Snow BKN004 OVC011 27 25     93% 16   30.02        
Jan 22 02:15 ENE 14 2 Light Snow OVC004 27 25     93% 15   30.02        
Jan 22 01:55   2 Light Snow OVC006 28 27     93%     30        
Jan 22 01:35 ENE 17 1.75 Light Snow OVC006 28 25     86% 16   29.99        
Jan 22 01:15 ENE 17 1.5 Light Snow BKN008 OVC012 28 27     93% 16   30        
Jan 22 00:55 ENE 11 2 Light Snow OVC008 28 27     93% 19   29.99        
Jan 22 00:35 ENE 9 2.5 Light Snow OVC008 28 27     93% 20   30        
Jan 22 00:15 ENE 10 3 Light Snow BKN008 OVC011 28 27     93% 19   30.01        
Jan 21 23:55 ENE 11 2 Light Snow OVC010 28 27     93% 19   30.02        
Jan 21 23:35 ENE 11 2 Light Snow BKN008 OVC015 28 27     93% 19   30.02        
Notice The following observation data may not be complete
Jan 21 23:15   2.5 Light Snow BKN005 OVC013          %              
Jan 21 22:55 ENE 9 2.5 Light Snow OVC005 28 28     100% 20   30.03        
Jan 21 22:35 ENE 6 2.5 Light Snow BKN007 OVC011 28 28     100% 22   30.03        
Jan 21 22:15 ENE 11 3 Light Snow SCT007 OVC012 28 27     93% 19   30.03        
Jan 21 21:55 ENE 7 2.5 Light Snow SCT002 BKN007 OVC014 28 27     93% 21   30.03        
Jan 21 21:35 ENE 14 1.5 Fog/Mist OVC002 28 28     100% 17   30.03        
Jan 21 21:15 ENE 10 1.25 Light Snow OVC002 28 28     100% 19   30.03        
Jan 21 20:55 E 13 0.25 Light Snow OVC002 28 28     100% 18   30.03        
Jan 21 20:35 ENE 10 0.5 Light Snow OVC002 28 28     100% 19   30.03        
Jan 21 20:15 ENE 7 0.25 Unknown Precipitation OVC002 28 28     100% 21   30.03        
Jan 21 19:55 ENE 9 0.75 Fog/Mist OVC002 28 28     100% 20   30.03        
Jan 21 19:35 E 10 0.25 Fog OVC002 28 28     100% 19   30.02        
Jan 21 19:15 ENE 7 1 Fog/Mist OVC002 28 28     100% 21   30.02        
Jan 21 18:55 ENE 9 0.25 Unknown Precipitation OVC002 28 28     100% 20   30.02        
Jan 21 18:35 E 6 0.5 Fog OVC002 28 28     100% 22   30.01        
Jan 21 18:15 E 6 1.75 Fog/Mist OVC002 28 27     93% 22   30.01        
Jan 21 17:55 E 5 4 Fog/Mist SCT004 28 27     93% 23   30.01        
Jan 21 17:35 E 7 10 Partly Cloudy SCT120 30 25     80% 23   30        
Jan 21 17:15 Calm 10 Partly Cloudy SCT110 30 25     80%     29.99        
Jan 21 16:55 Calm 10 Clear CLR 34 25     69%     29.99        
Jan 21 16:35 Calm 10 Clear CLR 34 25     69%     29.99        
Jan 21 16:15 Calm 10 Clear CLR 34 25     69%     29.99        
Jan 21 15:55 N 3 10 Clear CLR 34 25     69% 31   29.98        
Jan 21 15:35 N 6 10 Clear CLR 34 25     69% 29   29.98        
Jan 21 15:15 NNW 5 10 Clear CLR 34 25     69% 29   29.98        
Jan 21 14:55 NNW 5 10 Clear CLR 34 25     69% 29   29.98        
Jan 21 14:35 NW 6 10 Clear CLR 34 25     69% 29   29.97        
Jan 21 14:15 NW 5 10 Clear CLR 34 25     69% 29   29.97        
Jan 21 13:55 NNW 6 10 Clear CLR 34 25     69% 29   29.97        
Jan 21 13:35 NW 7 10 Clear CLR 34 27     75% 28   29.97        
Jan 21 13:15 WNW 3 10 Clear CLR 34 27     75% 31   29.96        
Jan 21 12:55 Calm 10 Clear CLR 34 25     69%     29.97        
Jan 21 12:35 Calm 10 Clear CLR 32 25     74%     29.97        
Jan 21 12:15 Calm 10 Clear CLR 32 25     74%     29.97        
Jan 21 11:55 Calm 10 Clear CLR 30 25     80%     29.97        
Jan 21 11:35 Calm 10 Clear CLR 30 25     80%     29.98        
Jan 21 11:15 Calm 10 Clear CLR 30 25     80%     29.98        
Jan 21 10:55 Calm 10 Clear CLR 28 25     86%     29.98        
Jan 21 10:35 NNW 3 10 Clear CLR 28 25     86% 25   29.98        
Jan 21 10:15 NNW 3 10 Clear CLR 28 25     86% 25   29.98        
Jan 21 09:55 NNW 5 10 Clear CLR 27 25     93% 21   29.98        
Jan 21 09:36 NNW 7 10 Clear CLR 27 23     86% 19   29.98        
Jan 21 09:15 NNW 6 10 Clear CLR 25 21     86% 18   29.98        
Jan 21 08:55 Calm 10 Clear CLR 23 21     93%     29.98        
Jan 21 08:35 Calm 7 Clear CLR 25 21     86%     29.97        
Jan 21 08:15 Calm 10 Clear CLR 25 21     86%     29.97        
Jan 21 07:55 Calm 10 Clear CLR 25 21     86%     29.96        
Jan 21 07:35 NW 6 10 Clear CLR 25 21     86% 18   29.96        
Jan 21 07:15 NW 3 10 Clear CLR 25 21     86% 21   29.95        
Jan 21 06:55 NW 3 10 Clear CLR 25 21     86% 21   29.95        
Jan 21 06:35 NW 3 10 Clear CLR 25 21     86% 21   29.96        
Jan 21 06:15 NW 3 10 Clear CLR 27 23     86% 23   29.95        
Jan 21 05:55 Calm 10 Clear CLR 27 23     86%     29.95        
Jan 21 05:35 NW 3 10 Clear CLR 27 23     86% 23   29.94        
Jan 21 05:15 NW 3 10 Partly Cloudy SCT120 27 23     86% 23   29.94        
Jan 21 04:55 Calm 10 Partly Cloudy SCT120 28 25     86%     29.94        
Jan 21 04:35 Calm 10 Clear CLR 28 25     86%     29.94        
Jan 21 04:15 WNW 3 10 Clear CLR 28 25     86% 25   29.94        
Jan 21 03:55 NW 6 10 Clear CLR 28 25     86% 22   29.93        
Jan 21 03:35 WNW 6 10 Clear CLR 28 25     86% 22   29.94        
Jan 21 03:15 WNW 6 10 Clear CLR 28 25     86% 22   29.95        
Jan 21 02:55 WNW 6 10 Clear CLR 28 25     86% 22   29.94        
Jan 21 02:35 WNW 7 10 Clear CLR 28 25     86% 21   29.94        
Jan 21 02:15 WNW 6 10 Clear CLR 28 25     86% 22   29.93        
Jan 21 01:55 W 7 10 Clear CLR 28 25     86% 21   29.93        
Jan 21 01:35 W 7 10 Clear CLR 28 25     86% 21   29.93        
Jan 21 01:15 W 5 10 Clear CLR 28 25     86% 23   29.93        
Jan 21 00:55 W 6 10 Clear CLR 28 25     86% 22   29.92        
Jan 21 00:36 W 5 10 Clear CLR 28 25     86% 23   29.92        
Jan 21 00:15 W 5 10 Clear CLR 28 25     86% 23   29.91        
Jan 20 23:55 WNW 6 10 Clear CLR 28 25     86% 22   29.91        
Jan 20 23:36 WNW 3 10 Clear CLR 28 25     86% 25   29.91        
Jan 20 23:15 Calm 10 Clear CLR 28 25     86%     29.91        
Jan 20 22:55 SW 3 10 Clear CLR 30 25     80% 27   29.91        
Jan 20 22:36 WSW 3 10 Clear CLR 28 25     86% 25   29.9        
Jan 20 22:15 Calm 10 Clear CLR 28 25     86%     29.89        
Jan 20 21:55 Calm 10 Clear CLR 30 25     80%     29.88        
Jan 20 21:35 Calm 10 Clear CLR 28 25     86%     29.88        
Jan 20 21:15 Calm 10 Clear CLR 28 23     80%     29.87        
Jan 20 20:55 Calm 10 Clear CLR 30 25     80%     29.87        
Jan 20 20:35 WNW 6 10 Clear CLR 32 25     74% 26   29.87        
Jan 20 20:15 W 3 10 Clear CLR 34 25     69% 31   29.87        
Jan 20 19:55 W 5 10 Clear CLR 34 27     75% 29   29.87        
Jan 20 19:35 W 5 10 Clear CLR 34 25     69% 29   29.87        
Jan 20 19:15 W 5 10 Clear CLR 36 27     69% 32   29.87        
Jan 20 18:55 W 6 10 Clear CLR 36 27     69% 31   29.87        
Jan 20 18:35 W 6 10 Clear CLR 36 27     69% 31   29.87        
Jan 20 18:15 W 6 10 Clear CLR 37 27     65% 33   29.86        
Jan 20 17:55 Calm 10 Clear CLR 37 27     65%     29.86        
Notice The following observation data may not be complete
Jan 20 17:35   10 Partly Cloudy SCT100          %              
Jan 20 17:15 W 5 10 Mostly Cloudy BKN100 39 27     60% 36   29.85        
Jan 20 16:55 Calm 10 Partly Cloudy SCT100 37 27     65%     29.84        
Jan 20 16:35 SW 3 10 Clear CLR 39 27     60% 37   29.84        
Jan 20 16:15 Calm 10 Clear CLR 39 27     60%     29.84        
Jan 20 15:55 WSW 5 10 Partly Cloudy SCT110 41 27     56% 38   29.83        
Jan 20 15:35 W 7 10 Partly Cloudy SCT110 41 27     56% 36   29.82        
Jan 20 15:15 W 8 10 Partly Cloudy SCT110 41 27     56% 36   29.82        
Jan 20 14:55 W 8 10 Clear CLR 41 27     56% 36   29.8        
Jan 20 14:35 W 5 10 Partly Cloudy SCT110 41 27     56% 38   29.8        
Jan 20 14:15 Calm 10 Partly Cloudy SCT110 41 27     56%     29.79        
Jan 20 13:55 S 5 10 Partly Cloudy SCT110 39 27     60% 36   29.78        
Jan 20 13:35 S 5 10 Partly Cloudy SCT110 39 28     65% 36   29.78        
Jan 20 13:15 SSW 3 10 Clear CLR 37 28     70% 35   29.79        
Jan 20 12:55 SW 6 10 Partly Cloudy SCT085 37 27     65% 33   29.8        
Jan 20 12:35 SW 3 10 Partly Cloudy SCT085 37 28     70% 35   29.81        
Jan 20 12:15 WSW 3 10 Partly Cloudy SCT085 36 27     69% 33   29.82        
Jan 20 11:55 Calm 10 Partly Cloudy SCT085 36 27     69%     29.82        
Jan 20 11:35 W 3 10 Partly Cloudy SCT085 36 27     69% 33   29.82        
Jan 20 11:15 WNW 3 10 Mostly Cloudy BKN085 34 28     80% 31   29.82        
Jan 20 10:55 W 5 10 Partly Cloudy SCT095 34 27     75% 29   29.82        
Jan 20 10:35 W 5 10 Partly Cloudy SCT100 34 27     75% 29   29.82        
Jan 20 10:15 W 3 10 Mostly Cloudy BKN100 32 27     80% 29   29.81        
Jan 20 09:55 W 5 10 Cloudy OVC100 32 27     80% 27   29.81        
Jan 20 09:35 Calm 10 Partly Cloudy SCT100 30 27     86%     29.82        
Jan 20 09:15 W 3 10 Partly Cloudy SCT110 30 27     86% 27   29.8        
Jan 20 08:55 WSW 6 10 Partly Cloudy SCT110 30 27     86% 24   29.79        
Jan 20 08:35 WSW 5 10 Partly Cloudy SCT110 28 27     93% 23   29.79        
Jan 20 08:15 WSW 5 10 Partly Cloudy SCT110 28 27     93% 23   29.79        
Jan 20 07:55 W 3 10 Clear CLR 28 27     93% 25   29.78        
Jan 20 07:35 WSW 6 10 Clear CLR 28 25     86% 22   29.78        
Jun 12 05:55 Calm 0.5 Fog VV005 55 52     88%     29.86        
Jun 12 01:55 Calm 7 Clear CLR 57 55     94%     29.8        
Jun 11 22:15 Calm 10 Clear CLR 57 55     94%     29.75        
Jun 11 21:35 Calm 7 Clear CLR 61 55     82%     29.74        
Notice The following observation data may not be complete
Jun 11 20:14   10 Clear CLR          %              
Jun 11 18:15 SE 6 10 Cloudy OVC023 64 57     77%     29.72        
Jun 11 14:15 SSW 3 10 Clear CLR 63 54     72%     29.75        
Jun 10 23:35 W 6 10 Clear CLR 66 52     60%     29.66        
Jun 10 21:55 W 7 10 Clear CLR 72 54     53%   71          
Jun 10 19:35 W 10 10 Clear CLR 81 54     39%   80 29.51        
Notice The following observation data may not be complete
Jun 10 19:15   10 Clear CLR          %              
Jun 10 17:55   10 Clear CLR 84 57     40%   83 29.45        
Jun 10 16:35 WSW 23 10 Partly Cloudy and Windy SCT050 SCT055 88 61     40%   88 29.4        
Jun 10 11:55 SSW 21 10 Clear and Windy CLR 84 61     45%   84 29.37        
Jun 09 22:15 E 8 10 Clear CLR 54 46     77%     29.68        
Jun 09 20:35 E 8 10 Clear CLR 57 48     72%     29.7        
Jun 09 13:55 ESE 8 10 Clear CLR 72 55     57%   71 29.82        
Notice The following observation data may not be complete
Jun 09 10:34   10 Clear CLR          %              
Jun 09 08:55 E 8 10 Clear CLR 63 55     77%     29.89        
Jun 08 23:15 E 5 10 Clear CLR 57 50     77%     29.88        
Jun 08 21:55 Calm 10 Mostly Cloudy BKN090 61 48     63%     29.88        
Jun 08 21:15 Calm 10 Partly Cloudy SCT080 63 48     59%     29.87        
Jun 08 14:35 NNW 11 10 Cloudy BKN050 BKN060 OVC080 75 54     47%   75 29.87        
Jun 08 11:14 NNW 10 10 Clear CLR 73 54     50%   73 29.89        
Jun 08 10:35 NNW 10 10 Partly Cloudy SCT037 72 54     53%   71 29.89        
Jun 07 21:35 SSW 3 10 Light Rain SCT120 66 50     56%     29.98        
Jun 07 13:55 S 7 10 Clear CLR 79 43     28%   78 30.04        
Jun 07 11:55 S 10 10 Clear CLR 75 43     31%   74 30.09        
Jun 07 11:35 SSE 9 7 Clear CLR 73 45     36%   72 30.09        
Jun 06 13:55 SE 3 10 Clear CLR 73 37     27%   72 30.13        
Jun 06 11:35 SSW 7 10 Clear CLR 70 30     23%     30.16        
Jun 06 05:55 Calm 10 Clear CLR 39 36     87%     30.15        
Jun 06 05:35 Calm 10 Clear CLR 41 36     81%     30.14        
Jun 06 01:35 Calm 10 Clear CLR 43 37     81%     30.12        
Jun 05 21:55 E 3 10 Clear CLR 55 36     47%     30.1        
Notice The following observation data may not be complete
Jun 05 20:15   10 Clear CLR          %